Weather History for Harrisburg, PA

Change the Weather History Date:

Sunday, October 28, 2012

  Actual Average Record
Temperature  
Mean Temperature 56 °F -  
Max Temperature 60 °F 58 °F 80 °F (1984)
Min Temperature 53 °F 39 °F 24 °F (1976)
Degree Days  
Heating Degree Days 9    
Growing Degree Days 6 (Base 50)    
Moisture  
Dew Point 50 °F    
Average Humidity 79    
Maximum Humidity 93    
Minimum Humidity 55    
Precipitation  
Precipitation 0.12 in - - ()
Sea Level Pressure  
Sea Level Pressure 29.80 in    
Wind  
Wind Speed 3 mph (NNE)    
Max Wind Speed 10 mph    
Max Gust Speed 18 mph    
Visibility 9 miles    
Events Rain    
Averages and records for this station are not official NWS values.
T = Trace of Precipitation, MM = Missing Value Source: NWS Daily Summary

Daily Weather History Graph

Daily Weather History Graph

Search for Another Location

Airport:

Trip Planner

Search our weather history database for the weather conditions in past years. The results will help you decide how hot, cold, wet, or windy it might be!

Date:

Astronomy

Oct. 28, 2012 Rise Set
Actual Time 7:32 AM EDT 6:08 PM EDT
Civil Twilight 7:04 AM EDT 6:36 PM EDT
Nautical Twilight 6:32 AM EDT 7:08 PM EDT
Astronomical Twilight 6:01 AM EDT 7:40 PM EDT
Moon 5:25 PM EDT (10/28) 6:23 AM EDT (10/28)
Length of Visible Light 11h 32m
Length of Day
10h 36m
Waxing Gibbous, 99% of the Moon is Illuminated
Oct 28
Waxing Gibbous
Oct 29
Full
Nov 6
Last Quarter
Nov 13
New
Nov 20
First Quarter

Hourly Weather History & Observations

Time (EDT) Temp. Dew Point Humidity Pressure Visibility Wind Dir Wind Speed Gust Speed Precip Events Conditions
12:56 AM 55.9 °F 53.1 °F 90% 29.91 in 5.0 mi Calm Calm - N/A   Partly Cloudy
1:56 AM 55.0 °F 53.1 °F 93% 29.90 in 7.0 mi Calm Calm - N/A   Clear
2:56 AM 59.0 °F 53.1 °F 81% 29.88 in 9.0 mi Calm Calm - N/A   Overcast
3:56 AM 57.0 °F 53.1 °F 87% 29.87 in 8.0 mi Calm Calm - N/A   Clear
4:22 AM 57.2 °F 53.6 °F 88% 29.87 in 8.0 mi Calm Calm - N/A   Mostly Cloudy
4:30 AM 57.2 °F 53.6 °F 88% 29.87 in 9.0 mi East 3.5 mph - N/A   Scattered Clouds
4:39 AM 57.2 °F 53.6 °F 88% 29.87 in 10.0 mi Calm Calm - N/A   Mostly Cloudy
4:56 AM 59.0 °F 52.0 °F 78% 29.87 in 10.0 mi NNE 3.5 mph - N/A   Overcast
5:56 AM 59.0 °F 52.0 °F 78% 29.87 in 10.0 mi North 4.6 mph - N/A   Overcast
6:56 AM 59.0 °F 52.0 °F 78% 29.85 in 10.0 mi NNE 4.6 mph - 0.00 in   Overcast
7:56 AM 57.9 °F 52.0 °F 81% 29.85 in 10.0 mi NNW 3.5 mph - N/A   Clear
8:56 AM 57.0 °F 52.0 °F 83% 29.87 in 9.0 mi Calm Calm - N/A   Overcast
9:56 AM 57.9 °F 48.9 °F 72% 29.87 in 10.0 mi East 10.4 mph - 0.00 in Rain Light Rain
10:56 AM 57.0 °F 46.0 °F 67% 29.85 in 10.0 mi NE 5.8 mph - 0.00 in Rain Light Rain
11:56 AM 57.9 °F 48.0 °F 70% 29.83 in 10.0 mi North 5.8 mph - 0.00 in   Overcast
12:56 PM 59.0 °F 46.0 °F 62% 29.80 in 10.0 mi NE 6.9 mph - N/A   Overcast
1:56 PM 57.0 °F 51.1 °F 81% 29.76 in 10.0 mi NNW 10.4 mph - N/A   Overcast
2:56 PM 57.9 °F 50.0 °F 75% 29.75 in 10.0 mi ENE 4.6 mph - N/A   Overcast
3:56 PM 59.0 °F 43.0 °F 55% 29.75 in 10.0 mi ENE 10.4 mph - N/A   Mostly Cloudy
4:56 PM 57.9 °F 45.0 °F 62% 29.75 in 10.0 mi NE 9.2 mph 18.4 mph N/A   Overcast
5:56 PM 55.0 °F 46.9 °F 74% 29.74 in 10.0 mi NNE 5.8 mph - 0.01 in Rain Light Rain
6:56 PM 55.0 °F 48.0 °F 77% 29.74 in 10.0 mi North 3.5 mph - 0.00 in Rain Light Rain
7:56 PM 53.1 °F 48.0 °F 83% 29.73 in 7.0 mi Variable 5.8 mph - 0.04 in Rain Light Rain
8:56 PM 53.1 °F 48.9 °F 86% 29.72 in 10.0 mi North 3.5 mph - 0.01 in Rain Light Rain
9:03 PM 53.6 °F 48.2 °F 82% 29.71 in 10.0 mi NNW 5.8 mph - 0.00 in Rain Light Rain
9:56 PM 53.1 °F 48.9 °F 86% 29.70 in 9.0 mi North 6.9 mph - 0.02 in Rain Light Rain
10:43 PM 53.6 °F 48.2 °F 82% 29.69 in 10.0 mi North 3.5 mph - 0.03 in Rain Light Rain
10:56 PM 53.1 °F 48.9 °F 86% 29.70 in 9.0 mi NNW 4.6 mph - 0.04 in Rain Light Rain
11:13 PM 53.6 °F 48.2 °F 82% 29.68 in 10.0 mi NNW 4.6 mph - 0.00 in Rain Light Rain
11:56 PM 53.1 °F 48.9 °F 86% 29.68 in 10.0 mi NNW 4.6 mph - 0.00 in   Overcast